Location: *
(45.9500°N, 9.0833°E)
Time: 03:00:59
(UTC+00:00)

Explorer 7 - Visible Passes

Search period start: 13 June 2021 00:00
Search period end: 23 June 2021 00:00
Orbit: 484 x 677 km, 50.3° (Epoch: 12 June)

Date Brightness Start Highest point End Pass type
(mag) Time Alt. Az. Time Alt. Az. Time Alt. Az.
13 Jun 7.8 01:07:07 10° W 01:11:43 52° N 01:16:04 10° ENE visible
13 Jun 7.8 02:48:17 10° WNW 02:52:45 54° N 02:56:56 10° E visible
13 Jun 8.3 21:56:11 25° ESE 21:56:11 25° ESE 21:59:04 10° E visible
13 Jun 7.1 23:32:21 23° WSW 23:35:19 86° NNW 23:39:55 10° ENE visible
14 Jun 8.0 01:11:40 10° W 01:16:13 48° N 01:20:31 10° ENE visible
14 Jun 7.5 21:58:07 35° S 21:59:14 41° SE 22:03:39 10° ENE visible
14 Jun 7.4 23:34:55 10° WSW 23:39:43 69° NNW 23:44:17 10° ENE visible
15 Jun 8.0 01:16:10 10° WNW 01:20:43 48° N 01:25:00 10° ENE visible
15 Jun 8.8 20:21:01 10° SSE 20:23:35 14° SE 20:26:08 10° E visible
15 Jun 7.2 21:58:43 10° SW 22:03:29 58° SSE 22:08:07 10° ENE visible
15 Jun 7.7 23:39:25 10° W 23:44:09 58° NNW 23:48:41 10° ENE visible
16 Jun 8.0 01:20:38 10° WNW 01:25:12 51° N 01:29:31 10° E visible
16 Jun 8.4 20:23:59 10° S 20:27:40 22° SE 20:31:19 10° E visible
16 Jun 7.0 22:02:55 10° WSW 22:07:48 79° SSE 22:12:31 10° ENE visible
16 Jun 7.9 23:43:56 10° W 23:48:37 52° N 23:53:06 10° ENE visible
17 Jun 7.7 01:25:04 10° WNW 01:29:40 57° NNE 01:34:01 10° E visible
17 Jun 7.9 20:27:31 10° SSW 20:31:49 31° SE 20:36:03 10° ENE visible
17 Jun 7.2 22:07:16 10° WSW 22:12:10 81° NNW 22:16:53 10° ENE visible
17 Jun 8.1 23:48:27 10° WNW 23:53:07 49° N 23:57:33 10° ENE visible
18 Jun 7.4 01:29:28 10° WNW 01:34:07 68° NNE 01:38:30 10° ESE visible
18 Jun 7.5 20:31:22 10° SW 20:36:01 45° SE 20:40:36 10° ENE visible
18 Jun 7.5 22:11:42 10° W 22:16:34 66° NNW 22:21:15 10° ENE visible
18 Jun 8.1 23:52:57 10° WNW 23:57:37 49° N 00:02:03 10° E visible
19 Jun 7.0 01:33:50 10° WNW 01:38:32 85° NNE 01:42:54 10° ESE visible
19 Jun 7.2 20:35:27 10° SW 20:40:17 63° SSE 20:45:03 10° ENE visible
19 Jun 7.8 22:16:13 10° W 22:21:00 57° NNW 22:25:39 10° ENE visible
19 Jun 7.9 23:57:24 10° WNW 00:02:06 53° N 00:06:33 10° E visible
20 Jun 6.9 01:38:13 10° WNW 01:42:52 72° SSW 01:47:13 10° SE visible
20 Jun 7.2 20:39:41 10° WSW 20:44:37 84° SSE 20:49:26 10° ENE visible
20 Jun 8.0 22:20:44 10° W 22:25:29 51° N 22:30:05 10° ENE visible
21 Jun 7.6 00:01:49 10° WNW 00:06:34 60° NNE 00:11:03 10° E visible
21 Jun 7.1 01:42:38 10° WNW 01:47:09 51° SW 01:51:23 10° SE visible
21 Jun 7.4 20:44:04 10° WSW 20:48:58 77° NNW 20:53:47 10° ENE visible
21 Jun 8.1 22:25:15 10° WNW 22:29:59 49° N 22:34:32 10° ENE visible
22 Jun 7.3 00:06:12 10° WNW 00:10:59 72° NNE 00:15:30 10° ESE visible
22 Jun 7.6 01:47:07 10° WNW 01:51:22 35° SW 01:55:21 10° SSE visible
22 Jun 7.7 20:48:31 10° W 20:53:23 64° NNW 20:58:10 10° ENE visible
22 Jun 8.0 22:29:43 10° WNW 22:34:28 50° N 22:39:02 10° E visible
